Wind_Speed
35 35 35 36 36 36 36 35 35 35 36 36 37 38 39 40 41 41 42 43 45 46 47 49 50 51 52 53 54 54 54 55 55 56 56 56 56 55 55 56 56 57
37 37 37 38 38 38 38 38 38 37 37 37 37 38 38 39 39 40 41 41 42 43 43 44 45 46 47 47 48 48 49 49 49 50 50 50 49 49 49 49 50 50
37 38 38 39 39 40 41 41 41 41 40 40 39 39 39 39 39 39 40 40 41 42 42 43 43 44 45 45 46 46 47 47 47 47 48 47 47 47 46 46 46 46
38 39 39 40 41 41 42 43 43 43 43 42 42 41 41 40 40 40 39 40 40 41 41 42 42 43 43 44 44 45 45 46 46 46 46 46 46 45 45 45 45 45
40 40 40 41 42 43 43 44 44 45 45 44 44 44 43 43 42 42 41 40 40 40 40 41 41 41 42 43 43 43 44 44 44 44 45 45 44 44 44 44 44 44
43 42 41 41 42 44 45 45 46 46 46 47 46 46 46 45 45 44 44 43 43 42 41 41 41 41 41 42 42 43 43 43 43 43 44 44 43 44 44 44 44 44
46 45 44 43 43 43 45 46 47 47 47 48 48 49 49 48 47 47 46 45 45 45 45 44 44 43 43 43 43 43 44 44 44 44 44 45 45 45 45 45 46 46
48 47 46 46 45 44 44 45 47 47 48 47 48 49 50 50 50 50 49 48 48 47 47 47 47 46 46 46 46 46 46 46 46 46 46 47 47 47 48 48 48 49
49 49 48 47 46 46 45 45 46 47 47 48 47 47 48 49 50 51 51 51 51 51 51 50 50 50 50 50 50 50 50 50 49 50 50 50 50 50 50 51 51 52
49 49 49 48 47 46 46 45 45 46 46 47 47 47 47 47 48 48 49 50 51 52 52 52 52 52 52 52 53 53 54 54 55 55 55 55 55 55 55 55 55 55
48 49 48 48 48 47 46 45 45 46 46 46 46 47 47 47 47 47 48 48 49 50 50 51 52 52 52 52 53 53 54 55 56 57 57 58 58 59 59 59 60 60
47 48 47 46 47 47 47 46 46 46 46 46 46 46 46 46 46 46 46 47 48 48 48 49 49 49 50 51 51 52 52 53 54 54 55 56 57 57 58 59 59 60
44 46 47 45 45 45 46 46 46 46 46 45 45 45 46 46 46 45 45 45 46 47 47 47 47 47 48 48 49 49 50 50 51 52 53 53 54 54 55 56 56 57
43 44 45 45 44 44 44 44 44 45 45 45 45 45 44 45 45 45 44 44 44 45 45 46 46 47 47 47 47 47 47 48 49 49 50 51 51 52 52 53 53 54
44 43 43 43 43 43 43 42 42 43 43 44 44 44 44 44 44 44 43 43 43 43 43 44 44 45 46 46 46 47 47 47 47 48 48 49 50 50 51 52 52 52
45 43 42 42 42 42 42 41 41 40 41 41 42 42 43 43 43 43 42 42 41 41 41 41 42 43 43 44 45 46 47 47 47 48 48 48 49 49 50 51 51 51
46 44 42 41 41 40 40 40 39 39 39 39 40 40 41 41 41 41 41 41 40 39 39 39 39 40 40 41 42 43 45 46 47 48 48 48 49 48 48 48 48 49
46 45 43 42 41 40 39 38 38 37 37 37 37 38 39 39 39 39 39 39 38 38 38 38 38 38 38 38 39 40 42 44 45 46 47 47 47 46 46 46 47 48
46 45 44 42 41 40 38 37 36 35 35 35 35 36 36 37 37 37 37 37 36 36 36 36 36 36 37 37 37 38 39 42 43 43 43 43 43 43 45 46 47 47
46 45 44 43 41 39 38 36 35 34 34 34 34 34 34 35 35 35 36 35 35 35 35 35 35 35 35 36 36 36 37 39 40 40 39 39 40 42 43 44 45 45
46 45 44 43 41 39 37 36 34 33 33 33 33 32 33 33 33 33 33 33 33 33 33 33 33 33 34 34 34 35 35 36 37 37 37 37 37 39 40 41 42 42
46 45 44 42 41 38 37 35 33 33 32 32 31 31 31 31 31 31 31 31 31 31 31 31 31 31 32 32 32 33 33 33 33 35 35 34 34 36 37 37 38 38
45 45 43 42 40 37 35 33 32 31 31 31 31 30 29 29 29 29 28 28 28 28 27 28 29 29 29 30 30 31 32 31 31 32 33 33 33 34 34 34 34 35
45 44 43 41 39 36 34 32 31 30 29 30 29 29 28 27 27 26 26 25 25 25 25 25 26 27 28 28 29 29 30 31 31 31 32 33 33 33 32 32 33 34
44 43 41 39 37 34 32 30 29 28 28 28 28 27 26 25 24 24 24 23 22 22 23 24 25 26 26 26 27 28 30 30 30 31 32 33 33 32 32 32 33 34
42 41 38 36 34 32 30 29 28 27 26 26 26 25 24 23 22 22 22 21 21 21 22 23 23 24 24 25 26 27 29 30 31 33 33 32 32 33 33 34 35 35
Wind_Direction
291 289 286 284 282 281 280 278 276 274 271 270 268 266 265 264 264 263 262 262 262 261 261 261 260 260 260 260 260 260 260 260 261 261 262 262 263 264 264 264 264 265
290 289 287 285 283 281 280 278 277 275 274 272 270 269 268 267 265 264 263 262 261 261 261 261 261 261 261 261 261 261 261 261 261 262 262 262 263 264 264 264 265 266
285 285 284 283 282 281 281 280 278 277 276 274 272 271 270 269 267 266 265 263 262 262 261 261 260 260 261 261 261 261 261 261 261 261 261 261 262 262 262 263 263 263
283 281 280 279 279 279 279 279 279 278 277 276 274 273 271 270 269 267 266 265 263 262 261 261 260 259 260 260 260 260 260 260 261 261 261 261 261 261 261 261 261 261
287 283 280 278 277 277 276 275 275 275 275 275 274 273 272 271 270 268 267 266 265 264 262 261 260 259 259 259 259 258 258 258 259 259 260 260 260 260 260 260 261 261
290 287 284 280 277 276 275 274 273 273 272 272 272 272 271 270 269 268 267 266 266 265 263 262 261 260 259 259 258 258 258 257 257 257 258 258 259 259 259 260 260 261
289 288 287 284 281 277 275 274 274 273 271 270 269 269 269 269 268 267 266 265 264 264 263 263 262 261 260 259 258 258 257 257 257 257 257 258 258 259 259 260 260 260
288 287 286 285 284 281 278 276 274 274 273 271 269 268 267 267 266 266 265 264 263 262 262 262 261 261 260 260 259 258 257 257 256 256 257 257 258 258 259 260 261 261
288 287 286 285 284 283 281 279 277 275 274 273 272 270 268 267 266 266 266 265 264 263 262 261 261 260 260 259 259 259 259 258 258 258 258 258 258 259 259 260 260 261
287 286 286 285 284 283 282 281 279 277 276 274 273 272 271 270 268 267 267 266 265 265 264 264 263 262 261 260 260 259 259 259 259 259 259 259 260 260 260 261 261 261
288 286 285 285 284 283 282 281 279 278 277 275 274 273 272 271 269 268 268 267 267 266 266 265 265 265 265 264 263 262 261 261 260 260 260 260 260 260 260 261 261 261
288 287 286 285 283 282 281 280 279 278 277 275 274 273 272 271 270 269 267 267 267 267 267 266 266 266 266 265 265 265 265 264 264 263 263 263 262 262 262 262 262 262
289 288 287 285 283 281 280 279 278 278 277 275 274 273 272 271 270 269 268 267 266 266 266 266 267 267 267 266 266 265 265 265 265 264 264 264 264 264 264 264 264 264
292 289 288 287 285 282 280 279 278 277 276 275 274 273 272 271 270 270 269 268 267 266 265 265 266 266 267 267 267 267 266 266 265 265 265 265 265 265 264 264 264 263
295 292 289 289 287 284 282 281 279 277 276 275 274 273 272 271 271 270 269 269 268 267 266 265 265 265 266 266 267 267 267 267 267 266 266 265 265 265 265 265 265 265
298 295 291 290 289 287 285 283 281 279 276 275 274 273 272 272 271 271 270 269 269 268 268 267 266 266 266 266 266 266 267 267 267 267 267 266 266 266 266 266 266 266
300 298 295 292 291 289 286 284 283 280 278 276 274 273 273 272 271 271 270 270 270 270 269 269 269 268 267 267 267 267 267 266 266 266 266 266 266 266 266 266 266 265
301 300 298 295 292 290 287 284 282 281 278 276 274 274 273 272 272 271 271 271 271 271 271 271 271 270 270 270 269 268 268 267 267 267 267 267 268 268 267 265 264 264
303 301 300 298 295 291 287 283 281 280 278 276 274 273 272 272 272 272 272 272 272 272 272 273 273 273 272 272 272 271 270 270 270 269 269 269 269 268 267 266 266 265
304 302 301 299 296 293 288 283 280 279 278 276 274 273 271 271 271 272 272 273 273 273 273 273 274 274 274 274 273 273 273 273 273 272 271 270 269 268 268 268 268 268
304 302 300 299 297 294 290 285 280 278 277 275 274 272 271 270 270 270 271 271 272 272 273 273 274 274 274 275 275 274 274 275 275 274 273 272 271 271 270 269 269 269
303 302 300 299 298 295 291 286 280 278 277 276 275 273 272 271 270 270 270 270 271 272 272 273 273 274 274 275 275 275 275 275 275 275 275 274 273 272 272 272 272 272
302 302 300 299 297 295 291 286 281 278 278 277 277 275 274 273 271 271 270 269 270 271 271 271 272 272 273 274 275 275 276 276 275 275 276 276 275 274 274 275 276 276
301 301 300 298 296 294 291 286 281 279 279 278 277 276 274 273 272 271 269 268 268 268 269 269 270 271 272 273 275 276 276 276 276 276 276 276 276 277 278 278 278 278
300 300 299 297 295 292 290 286 283 281 280 279 277 275 273 271 270 269 268 267 267 267 268 268 269 271 272 274 275 276 276 277 277 276 276 277 279 281 282 281 280 279
298 298 297 294 292 291 289 286 284 282 280 278 275 273 271 269 268 267 267 268 268 268 268 268 269 271 273 274 275 276 277 278 278 277 279 281 283 283 282 281 280 279
Height
2984 2983 2982 2981 2980 2979 2978 2978 2977 2976 2975 2975 2975 2974 2974 2974 2974 2975 2975 2975 2975 2975 2975 2975 2976 2976 2976 2977 2977 2977 2978 2979 2980 2980 2981 2981 2982 2983 2984 2984 2985 2985
2979 2978 2977 2976 2975 2974 2973 2973 2972 2972 2971 2970 2969 2969 2969 2969 2969 2969 2969 2969 2969 2969 2969 2970 2970 2970 2970 2970 2971 2971 2971 2972 2973 2973 2973 2974 2975 2976 2976 2977 2978 2979
2974 2973 2972 2971 2970 2969 2968 2967 2967 2966 2966 2965 2964 2964 2964 2964 2964 2963 2963 2963 2963 2963 2964 2964 2964 2964 2964 2964 2965 2965 2965 2966 2966 2967 2967 2967 2968 2969 2969 2970 2971 2971
2969 2968 2967 2966 2965 2963 2962 2961 2961 2960 2960 2959 2959 2959 2958 2958 2958 2958 2958 2957 2957 2957 2958 2958 2958 2958 2958 2958 2958 2959 2959 2960 2960 2961 2961 2961 2962 2962 2963 2963 2964 2965
2963 2962 2961 2960 2959 2958 2957 2956 2955 2954 2954 2953 2953 2953 2953 2953 2953 2952 2952 2952 2951 2952 2952 2952 2952 2952 2952 2952 2952 2953 2953 2954 2954 2955 2955 2955 2956 2956 2957 2957 2957 2958
2956 2955 2954 2954 2953 2952 2951 2950 2949 2949 2948 2947 2947 2946 2946 2946 2946 2946 2946 2946 2946 2946 2946 2946 2947 2947 2947 2947 2947 2947 2947 2948 2948 2949 2949 2950 2950 2950 2951 2951 2952 2952
2950 2949 2948 2947 2946 2945 2945 2944 2943 2943 2942 2942 2941 2941 2940 2940 2940 2940 2940 2939 2940 2940 2940 2940 2941 2941 2941 2941 2941 2941 2942 2942 2943 2943 2943 2944 2944 2944 2944 2945 2945 2946
2944 2943 2942 2940 2939 2938 2937 2937 2936 2935 2935 2935 2935 2935 2934 2934 2934 2933 2933 2933 2933 2933 2933 2934 2934 2934 2934 2935 2935 2935 2936 2936 2937 2937 2937 2938 2938 2938 2938 2938 2939 2940
2937 2936 2935 2934 2932 2931 2930 2929 2928 2928 2927 2927 2927 2927 2927 2927 2926 2926 2926 2926 2926 2926 2926 2927 2927 2927 2928 2928 2928 2929 2929 2930 2930 2931 2931 2931 2931 2931 2932 2932 2932 2933
2930 2929 2928 2927 2926 2925 2923 2922 2921 2921 2920 2919 2919 2919 2919 2919 2918 2918 2918 2918 2918 2918 2919 2919 2919 2919 2920 2920 2920 2921 2922 2922 2923 2923 2924 2924 2924 2924 2925 2925 2925 2926
2924 2922 2921 2920 2918 2917 2916 2915 2914 2914 2913 2912 2911 2911 2911 2911 2911 2911 2911 2911 2911 2911 2911 2911 2911 2911 2912 2912 2912 2913 2913 2914 2915 2915 2916 2916 2916 2916 2917 2917 2918 2918
2918 2916 2915 2913 2912 2910 2909 2908 2907 2906 2906 2905 2904 2904 2903 2903 2903 2903 2903 2903 2903 2903 2903 2904 2904 2904 2904 2904 2904 2905 2905 2906 2907 2907 2907 2908 2908 2908 2908 2909 2909 2910
2912 2910 2908 2907 2905 2904 2902 2901 2900 2899 2898 2898 2897 2897 2896 2896 2895 2895 2895 2896 2896 2896 2896 2896 2896 2896 2896 2896 2897 2897 2898 2898 2899 2899 2899 2900 2900 2900 2900 2900 2901 2901
2907 2905 2902 2900 2899 2897 2896 2894 2893 2892 2891 2890 2890 2889 2889 2889 2888 2888 2888 2888 2888 2888 2889 2889 2889 2889 2889 2889 2890 2890 2890 2891 2891 2892 2892 2892 2892 2893 2893 2893 2893 2893
2901 2899 2897 2895 2893 2891 2889 2888 2887 2886 2884 2883 2883 2882 2882 2881 2881 2881 2881 2881 2881 2881 2881 2882 2882 2882 2882 2882 2883 2883 2883 2883 2884 2884 2885 2885 2885 2885 2886 2885 2885 2885
2894 2893 2892 2890 2887 2885 2883 2882 2881 2879 2878 2877 2876 2875 2875 2874 2874 2874 2874 2874 2874 2874 2874 2875 2875 2875 2875 2876 2876 2876 2876 2876 2877 2877 2878 2878 2878 2878 2878 2878 2878 2878
2887 2886 2885 2884 2882 2880 2878 2876 2875 2873 2872 2871 2870 2869 2868 2868 2867 2867 2867 2867 2867 2867 2868 2868 2868 2868 2869 2869 2869 2869 2869 2869 2870 2871 2871 2871 2871 2872 2871 2871 2872 2871
2881 2880 2878 2877 2875 2874 2872 2870 2869 2868 2866 2865 2864 2863 2862 2861 2861 2861 2861 2861 2861 2861 2861 2861 2861 2861 2862 2862 2862 2862 2862 2862 2863 2864 2864 2864 2865 2865 2864 2864 2864 2864
2876 2874 2872 2871 2869 2868 2866 2864 2863 2862 2861 2860 2859 2858 2857 2856 2856 2855 2855 2855 2855 2855 2855 2855 2855 2855 2855 2855 2855 2855 2855 2855 2856 2857 2857 2857 2857 2857 2857 2857 2856 2857
2870 2868 2867 2865 2863 2861 2860 2859 2857 2856 2855 2854 2854 2853 2852 2851 2851 2850 2850 2850 2849 2849 2849 2849 2848 2848 2849 2849 2849 2849 2848 2848 2849 2850 2850 2850 2850 2849 2849 2849 2849 2850
2864 2863 2861 2859 2857 2856 2854 2853 2852 2851 2850 2849 2848 2848 2847 2847 2846 2846 2845 2845 2844 2844 2844 2843 2843 2843 2843 2843 2843 2843 2843 2843 2843 2843 2843 2844 2843 2843 2843 2843 2843 2842
2859 2857 2855 2853 2852 2850 2849 2847 2846 2845 2844 2844 2843 2843 2842 2842 2841 2841 2841 2840 2840 2839 2839 2838 2838 2838 2837 2837 2837 2837 2837 2838 2838 2837 2837 2838 2837 2837 2837 2836 2836 2836
2853 2851 2849 2847 2846 2844 2843 2842 2841 2840 2839 2838 2838 2838 2837 2837 2837 2836 2836 2836 2835 2835 2834 2834 2833 2833 2833 2833 2832 2832 2832 2833 2833 2832 2832 2832 2832 2832 2832 2831 2830 2830
2848 2845 2843 2841 2840 2839 2838 2837 2836 2835 2834 2834 2833 2832 2832 2832 2832 2831 2831 2831 2831 2830 2830 2830 2829 2829 2829 2829 2828 2828 2828 2828 2828 2828 2827 2827 2826 2827 2827 2826 2826 2825
2843 2840 2838 2836 2835 2834 2833 2831 2831 2830 2829 2829 2828 2828 2827 2827 2827 2827 2827 2827 2827 2826 2826 2826 2825 2825 2825 2825 2825 2824 2823 2823 2823 2823 2822 2822 2822 2822 2822 2821 2820 2819
2837 2835 2833 2831 2830 2829 2828 2827 2826 2826 2825 2824 2824 2824 2823 2823 2823 2823 2822 2823 2823 2822 2822 2822 2822 2822 2822 2821 2821 2820 2819 2819 2818 2818 2818 2818 2818 2818 2817 2816 2815 2814